User: anonymous   Login
Location: *
(51.1248°S, 108.4023°W)
Time: 20:59:08
(UTC+00:00)
Language:

YAOGAN 10 - Orbit

View from above orbital plane
View from above orbital plane
View from above satellite
View from above satellite

Ground track
Ground track

The orbit data is extracted from the following two-line orbital elements,

1 36834U 10038A   22024.51374164  .00000237  00000-0  37340-4 0  9990
2 36834  97.9787  35.9951 0001220  77.7177 282.4177 14.81127358619474
Epoch (UTC): 24 January 2022 12:19:47
Eccentricity: 0.0001220
inclination: 97.9787°
perigee height: 625 km
apogee height: 626 km
right ascension of ascending node: 35.9951°
argument of perigee: 77.7177°
revolutions per day: 14.81127358
mean anomaly at epoch: 282.4177°
orbit number at epoch: 61947

The dashed part of the orbit path shows where the satellite is in the earth's shadow,  

DLR